SCP
0 0 0 0 0 0 0 0 0 0 0 0 0 0 0 0 0 0 0 0 0 0 0 0 0 0 0 0 0 0 0 0 0 0 0 0 0 0 0 0 0 0 0
0 0 0 0 0 0 0 0 0 0 0 0 0 0 0 0 0 0 0 0 0 0 0 0 0 0 0 0 0 0 0 0 0 0 0 0 0 0 0 0 0 0 0
0 0 0 0 0 0 0 0 0 0 0 0 0 0 0 0 0 0 0 0 0 0 0 0 0 0 0 0 0 0 0 0 0 0 0 0 0 0 0 0 0 0 0
0 0 0 0 0 0 0 0 0 0 0 0 0 0 0 0 0 0 0 0 0 0 0 0 0 0 0 0 0 0 0 0 0 0 0 0 0 0 0 0 0 0 0
0 0 0 0 0 0 0 0 0 0 0 0 0 0 0 0 0 0 0 0 0 0 0 0 0 0 0 0 0 0 0 0 0 0 0 0 0 0 0 0 0 0 0
0 0 0 0 0 0 0 0 0 0 0 0 0 0 0 0 0 0 0 0 0 0 0 0 0 0 0 0 0 0 0 0 0 0 0 0 0 0 0 0 0 0 0
0 0 0 0 0 0 0 0 0 0 0 0 0 0 0 0 0 0 0 0 0 0 0 0 0 0 0 0 0 0 0 0 0 0 0 0 0 0 0 0 0 0 0
0 0 0 0 0 0 0 0 0 0 0 0 0 0 0 0 0 0 0 0 0 0 0 0 0 0 0 0 0 0 0 0 0 0 0 0 0 0 0 0 0 0 0
0 0 0 0 0 0 0 0 0 0 0 0 0 0 0 0 0 0 0 0 0 0 0 0 0 0 0 0 0 0 0 0 0 0 0 0 0 0 0 0 0 0 0
0 0 0 0 0 0 0 0 0 0 0 0 0 0 0 0 0 0 0 0 0 0 0 0 0 0 0 0 0 0 0 0 0 0 0 0 0 0 0 0 0 0 0
0 0 0 0 0 0 0 0 0 0 0 0 0 0 0 0 0 0 0 0 0 0 0 0 0 0 0 0 0 0 0 0 0 0 0 0 0 0 0 0 0 0 0
0 0 0 0 0 0 0 0 0 0 0 0 0 0 0 0 0 0 0 0 0 0 0 0 0 0 0 0 0 0 0 0 0 0 0 0 0 0 0 0 0 0 0
0 0 0 0 0 0 0 0 0 0 0 0 0 0 0 0 0 0 0 0 0 0 0 0 0 0 0 0 0 0 0 0 0 0 0 0 0 0 0 0 0 0 0
0 0 0 0 0 0 0 0 0 0 0 0 0 0 0 0 0 0 0 0 0 0 0 0 0 0 0 0 0 0 0 0 0 0 0 0 0 0 0 0 0 0 0
0 0 0 0 0 0 0 0 0 0 0 0 0 0 0 0 0 0 0 0 0 0 0 0 0 0 0 0 0 0 0 0 0 0 0 0 0 0 0 0 0 0 0
0 0 0 0 0 0 0 0 0 0 0 0 0 0 0 0 0 0 0 0 0 0 0 0 0 0 0 0 0 0 0 0 0 0 0 0 0 0 0 0 0 0 0
0 0 0 0 0 0 0 0 0 0 0 0 0 0 0 0 0 0 0 0 0 0 0 0 0 0 0 0 0 0 0 0 0 0 0 0 0 0 0 0 0 0 0
0 0 0 0 0 0 0 0 0 0 0 0 0 0 0 0 0 0 0 0 0 0 0 0 0 0 0 0 0 0 0 0 0 0 0 0 0 0 0 0 0 0 0
0 0 0 0 0 0 0 0 0 0 0 0 0 0 0 0 0 0 0 0 0 0 0 0 0 0 0 0 0 0 0 0 0 0 0 0 0 0 0 0 0 0 0
0 0 0 0 0 0 0 0 0 0 0 0 0 0 0 0 0 0 0 0 0 0 0 0 0 0 0 0 0 0 0 0 0 0 0 0 0 0 0 0 0 0 0
0 0 0 0 0 0 0 0 0 0 0 0 0 0 0 0 0 0 0 0 0 0 0 0 0 0 0 0 0 0 0 0 0 0 0 0 0 0 0 0 0 0 0
0 0 0 0 0 0 0 0 0 0 0 0 0 0 0 0 0 0 0 0 0 0 0 0 0 0 0 0 0 0 0 0 0 0 0 0 0 0 0 0 0 0 0
0 0 0 0 0 0 0 0 0 0 0 0 0 0 0 0 0 0 0 0 0 0 0 0 0 0 0 0 0 0 0 0 0 0 0 0 0 0 0 0 0 0 0
0 0 0 0 0 0 0 0 0 0 0 0 0 0 0 0 0 0 0 0 0 0 0 0 0 0 0 0 0 0 0 0 0 0 0 0 0 0 0 0 0 0 0
0 0 0 0 0 0 0 0 0 0 0 0 0 0 0 0 0 0 0 0 0 0 0 0 0 0 0 0 0 0 0 0 0 0 0 0 0 0 0 0 0 0 0
0 0 0 0 0 0 0 0 0 0 0 0 0 0 0 0 0 0 0 0 0 0 0 0 0 0 0 0 0 0 0 0 0 0 0 0 0 0 0 0 0 0 0
Wind_Speed
4 4 4 4 4 4 5 5 5 5 5 5 4 5 5 5 5 4 5 7 6 6 7 8 8 8 8 8 8 7 7 7 7 7 7 7 7 7 7 8 8 8 8
4 4 5 4 4 4 5 5 5 5 4 4 4 5 5 5 4 4 4 6 6 6 6 6 7 7 7 7 7 7 7 6 6 6 6 6 6 6 6 7 7 7 7
5 5 4 4 4 4 5 5 6 5 4 4 4 4 4 4 4 4 4 3 4 5 6 5 5 5 5 6 6 6 6 6 5 5 5 5 5 5 5 5 5 5 5
5 5 5 5 5 4 4 5 5 5 5 4 3 3 3 3 4 3 3 3 2 3 4 5 5 5 4 4 5 5 6 5 5 4 4 4 4 4 4 4 3 3 4
5 5 5 4 6 5 4 5 5 5 5 5 4 3 2 3 3 3 3 3 2 2 2 4 4 5 4 3 4 4 4 4 4 3 3 3 3 3 3 2 2 2 2
4 4 4 6 6 5 5 5 6 5 5 4 4 3 2 2 2 2 2 2 2 2 2 2 3 3 3 3 2 2 3 3 3 3 2 2 2 2 2 2 1 1 1
4 4 3 5 6 5 6 7 6 7 5 5 4 3 2 1 2 2 2 2 2 2 2 2 2 2 2 2 2 2 1 2 2 3 2 2 2 2 2 1 1 1 0
5 5 5 5 5 5 7 7 6 5 4 4 4 4 3 3 2 2 2 2 3 2 2 2 2 2 1 1 2 1 1 1 2 2 3 2 2 2 2 1 1 0 1
4 5 6 6 5 6 6 7 8 7 6 5 4 3 3 3 3 3 3 3 3 3 2 2 2 2 2 1 1 1 0 1 1 2 3 3 3 3 3 2 2 2 1
4 5 5 6 6 5 6 7 7 6 7 6 5 3 1 1 3 3 4 3 3 3 2 2 3 3 2 2 1 0 0 1 2 2 3 3 4 4 4 3 3 3 3
4 5 5 5 5 5 5 6 6 7 6 6 5 4 3 2 2 2 3 3 3 3 2 3 2 2 2 2 2 1 1 2 3 3 4 4 4 4 4 3 3 3 3
3 5 5 6 5 5 5 6 6 8 7 7 6 5 4 4 4 3 3 4 3 3 3 3 2 2 2 2 2 1 1 2 3 4 4 4 4 4 4 4 4 4 4
3 5 5 6 5 5 5 5 6 6 7 7 6 5 5 4 3 3 3 3 3 2 3 3 3 2 2 2 2 2 3 3 4 4 5 5 4 4 4 4 4 4 4
4 5 6 6 6 6 6 6 5 5 5 6 6 6 4 4 4 4 3 3 3 3 3 3 3 3 2 2 2 3 3 3 4 4 5 4 3 3 3 3 4 4 4
4 6 6 6 6 6 6 6 4 5 5 5 5 5 4 4 4 4 3 4 4 4 4 3 3 3 3 2 2 3 3 2 4 4 4 4 3 3 3 3 3 4 4
5 6 6 6 7 6 6 6 5 5 6 5 4 6 5 4 3 3 4 4 4 3 3 2 2 2 3 2 2 3 4 3 3 4 4 3 3 3 3 3 4 4 4
6 7 7 7 7 7 6 6 6 6 6 6 5 6 6 6 4 4 4 4 4 4 4 3 2 2 3 3 3 3 3 3 3 4 4 4 4 4 4 4 4 4 5
7 7 7 7 6 6 7 7 7 7 7 7 7 6 6 5 6 5 5 5 5 5 4 4 3 3 4 3 3 3 2 2 3 3 4 5 5 4 4 5 5 5 5
6 7 7 7 7 7 7 7 8 7 7 7 7 7 7 7 7 6 6 5 4 4 4 4 4 3 2 2 3 2 2 2 2 2 3 4 5 5 5 5 5 5 5
6 6 7 7 7 7 7 7 7 7 7 7 7 7 7 7 7 7 6 6 5 5 4 4 3 3 3 2 3 2 2 2 2 2 2 3 4 5 5 6 6 6 6
6 6 6 7 7 6 6 7 7 7 7 7 6 6 6 6 6 5 5 6 6 5 5 4 4 3 3 3 3 3 3 3 3 2 2 3 3 3 4 5 5 6 6
5 5 6 7 7 6 7 8 7 7 7 7 7 7 6 7 6 7 6 6 7 7 7 6 5 5 6 5 3 3 3 3 3 2 3 3 3 4 4 4 5 6 7
5 5 6 6 6 6 7 8 8 7 7 7 7 7 5 5 7 7 7 7 8 9 9 7 7 7 7 6 5 5 5 5 4 2 2 4 3 4 4 4 5 6 7
4 4 5 6 5 6 7 8 7 7 6 7 7 7 7 7 7 6 6 6 7 8 8 7 7 6 5 5 6 5 4 3 3 2 3 4 3 4 4 4 6 7 8
3 3 4 5 6 5 7 8 7 6 5 6 6 7 7 7 7 8 7 6 6 6 6 7 6 6 6 6 5 3 4 3 4 3 3 3 3 3 4 4 4 6 7
2 2 2 3 5 5 7 8 8 5 5 5 5 6 8 8 7 9 7 7 7 6 4 4 4 4 4 5 6 6 5 5 3 3 3 2 2 2 3 3 3 3 4
Wind_Direction
170 162 156 157 160 157 158 154 149 143 140 136 136 136 131 123 119 116 109 92 89 97 110 115 114 115 113 111 111 109 109 108 110 107 104 99 95 91 86 82 78 73 70
175 167 162 162 161 160 159 157 152 146 140 137 137 140 136 130 123 121 119 113 91 86 97 111 116 113 114 116 116 112 110 112 110 108 112 109 105 101 94 87 80 76 71
179 172 167 164 163 160 156 153 151 148 142 142 142 140 137 136 135 132 129 127 121 96 86 93 106 116 117 122 124 121 117 114 115 112 114 117 117 114 105 95 87 79 71
184 176 171 167 164 161 158 158 158 154 149 145 141 140 141 141 144 135 133 132 130 128 110 89 87 102 116 126 128 129 127 123 123 119 115 115 124 126 115 104 92 85 71
187 181 175 169 168 164 163 166 164 160 153 146 141 136 140 144 146 149 142 136 130 137 140 119 102 86 86 112 127 131 137 139 136 137 133 129 134 138 132 121 105 91 70
187 179 181 177 174 169 168 171 167 160 153 145 136 125 116 138 144 147 155 150 144 149 153 148 151 128 99 93 105 121 144 154 158 161 156 150 151 153 151 157 148 126 66
186 179 177 179 182 179 176 174 169 159 154 152 146 138 128 143 143 157 168 168 156 158 159 155 153 158 148 137 104 95 139 174 183 186 191 186 184 191 187 178 179 203 289
185 180 176 177 181 180 179 177 172 167 163 174 168 163 170 179 180 182 181 182 176 168 170 171 171 166 162 167 120 99 73 173 222 210 203 198 197 196 203 216 201 218 336
193 185 185 182 183 185 183 184 181 181 176 180 185 183 183 186 162 177 186 187 186 184 183 186 191 190 193 191 177 156 33 285 240 215 207 211 220 223 226 232 238 256 276
195 186 185 187 186 188 189 189 188 187 182 180 184 208 226 157 177 168 180 187 194 197 196 197 198 198 201 199 180 182 275 260 233 226 225 233 237 240 239 242 247 260 266
200 193 186 187 189 191 190 194 191 191 192 189 184 180 185 183 200 194 181 181 194 201 207 213 207 200 199 202 205 223 219 246 236 237 240 243 244 250 246 250 255 258 265
204 200 194 191 189 189 192 197 198 197 199 197 192 189 188 187 190 200 190 187 196 193 203 209 210 203 205 207 202 210 195 228 242 245 245 248 251 255 253 259 262 264 267
210 205 201 197 193 192 192 198 199 200 201 198 199 198 198 205 193 201 201 187 195 191 200 204 205 210 213 218 208 223 206 227 242 245 245 246 255 266 265 265 266 269 272
214 211 207 201 197 194 191 195 198 200 202 201 205 203 200 201 196 196 204 192 188 200 208 204 196 202 212 217 245 221 217 229 245 244 245 249 257 269 269 267 269 271 276
216 211 208 202 197 197 195 194 198 199 199 202 204 208 207 202 201 201 204 210 205 205 213 201 195 197 205 214 230 223 233 232 235 233 240 246 249 256 258 262 268 271 276
217 212 209 203 197 196 194 195 198 202 203 203 203 205 207 208 200 198 203 214 222 217 220 214 209 210 205 212 222 229 236 227 221 229 235 242 244 243 245 255 262 269 273
213 209 205 202 199 196 196 197 199 198 201 204 204 206 207 205 202 202 201 211 217 212 222 228 229 222 219 219 216 229 237 229 223 225 233 239 238 238 239 246 255 260 267
213 209 204 201 203 203 201 201 201 203 204 205 206 207 210 206 207 206 203 214 220 214 215 222 225 222 226 225 227 230 242 246 245 229 232 237 236 235 237 242 248 255 263
213 210 205 203 205 207 207 207 206 206 207 209 208 208 210 206 211 209 206 211 217 213 214 218 224 225 228 219 228 236 244 251 259 240 237 236 237 240 240 240 245 252 258
214 211 209 206 206 207 207 209 209 208 207 210 213 214 213 212 212 209 210 212 210 207 205 211 218 221 224 212 222 227 243 250 256 253 245 248 246 244 243 243 246 252 257
217 210 208 208 205 204 205 207 209 208 207 209 212 216 218 214 218 214 217 214 208 207 205 209 218 219 216 204 215 223 240 249 259 241 243 244 244 247 245 241 243 251 257
212 209 210 208 206 207 204 207 211 210 208 208 210 213 212 211 212 213 220 221 213 209 210 211 220 222 224 227 220 219 228 245 254 224 245 252 242 248 251 249 252 255 258
210 212 215 212 212 209 200 202 208 213 212 212 211 209 212 212 213 213 214 217 220 219 217 217 222 227 226 225 223 225 231 244 256 236 236 255 252 254 255 252 251 255 260
220 215 214 213 213 210 199 201 203 214 216 216 215 214 214 217 214 210 212 219 224 222 221 223 229 233 236 226 221 228 237 257 281 253 234 252 254 261 267 259 249 252 258
233 225 214 202 205 207 198 201 201 211 214 217 217 219 217 221 208 203 209 215 224 227 220 223 232 237 234 226 218 212 210 222 254 247 234 246 259 277 271 260 255 251 255
238 198 188 198 201 207 198 200 202 209 211 211 214 217 217 220 209 204 209 212 221 227 217 215 226 228 227 218 215 219 216 219 244 246 213 227 246 259 269 264 266 262 256